Regional Weather Roundup
Issued by NWS

Home | Current Version | Previous Version | Graphics & Text | Print | Product List | Glossary On
Versions: 1 2 3 4 5 6 7 8 9 10 11 12 13 14 15 16 17 18 19 20 21 22 23 24 25 26 27 28 29 30 31 32 33 34 35 36 37 38 39 40 41 42 43 44 45 46 47 48 49 50
000
ASUS43 KLOT 030000
RWRIL

ILLINOIS REGIONAL WEATHER ROUNDUP
NATIONAL WEATHER SERVICE CHICAGO/ROMEOVILLE IL
700 PM CDT TUE JUN 02 2015

NOTE: "FAIR" INDICATES FEW OR NO CLOUDS BELOW 12,000 FEET WITH NO
SIGNIFICANT WEATHER AND/OR OBSTRUCTIONS TO VISIBILITY.

* THESE STATIONS ARE NOT UNDER NWS QUALITY CONTROL. THEY ALSO MAY NOT
  REPORT WEATHER SUCH AS PRECIPITATION OR FOG.

ILZ001-002-007-009-015-016-024-030100-
NORTHWEST ILLINOIS

CITY           SKY/WX    TMP DP  RH WIND       PRES   REMARKS
MOLINE         PTSUNNY   72  50  45 SW7       30.03S
6HR MIN TEMP:  71; 6HR MAX TEMP:  74;

STERLING*      SUNNY     72  46  40 S6        30.05S
$$

ILZ003-004-008-010-011-017-018-030100-
NORTH CENTRAL ILLINOIS

CITY           SKY/WX    TMP DP  RH WIND       PRES   REMARKS
ROCKFORD       PTSUNNY   71  46  40 S8        30.07S
6HR MIN TEMP:  70; 6HR MAX TEMP:  74;

$$

ILZ005-006-012>014-019>023-030100-
NORTHEAST ILLINOIS

CITY           SKY/WX    TMP DP  RH WIND       PRES   REMARKS
CHICAGO-OHARE  MOSUNNY   68  47  46 E10       30.08R
6HR MIN TEMP:  67; 6HR MAX TEMP:  70;

CHICAGO-MIDWAY PTSUNNY   66  47  50 E10       30.09R
6HR MIN TEMP:  66; 6HR MAX TEMP:  71;

AURORA         SUNNY     70  44  39 SE6       30.07S
6HR MIN TEMP:  70; 6HR MAX TEMP:  74;

WAUKEGAN       SUNNY     60  45  57 E6        30.10R
6HR MIN TEMP:  60; 6HR MAX TEMP:  64;

DUPAGE AIRPORT SUNNY     70  48  45 SE5       30.07R
6HR MIN TEMP:  68; 6HR MAX TEMP:  72;

WHEELING       SUNNY     64  45  49 NE6       30.11R
6HR MIN TEMP:  64; 6HR MAX TEMP:  68;

NORTHERLY ISL    N/A     56  48  74 N3          N/A
$$

LMZ740>746-030100-
SOUTHERN LAKE MICHIGAN

STATION/POSITION SKY/WX   TEMP    WIND        PRES    VSBY  WAVE
                          AIR SEA DIR/SP/G                  HT/PER
                          (F)     (DEG/KT/KT) (MB)    (MI)  (FT/S)
SOUTHERN BUOY              45 39  350/  6/  6 1020.1F         0
HARRISON CRIB              55      40/  8/  9   N/A
BURNHAM HARBOR             58      10/  6/  7   N/A
CALUMET HARBOR             57      40/  5/  9   N/A
BURNS HARBOR                       50/  9/ 11 1019.6F
MICHIGAN CITY              55      20/ 11/ 13   N/A
MICHIGAN CITY 6N           54 56   60/ 10/ 12   N/A           1
ST. JOSEPH                 55 56   50/ 12/ 12   N/A           1
$$

ILZ025>027-034>036-040-047-049-050-058-095>099-030100-
WEST-CENTRAL ILLINOIS

CITY           SKY/WX    TMP DP  RH WIND       PRES   REMARKS
QUINCY         PTSUNNY   70  56  61 SW6       30.05R
$$

ILZ028>032-037-038-041>044-048-051>054-059>061-030100-
CENTRAL ILLINOIS

CITY           SKY/WX    TMP DP  RH WIND       PRES   REMARKS
DECATUR        MOSUNNY   73  54  51 E7        30.05S
PEORIA         SUNNY     72  51  47 SE5       30.06R
6HR MIN TEMP:  70; 6HR MAX TEMP:  74;

SPRINGFIELD    SUNNY     72  56  57 SE3       30.05S
6HR MIN TEMP:  70; 6HR MAX TEMP:  76;

TAYLORVILLE    NOT AVBL
$$

ILZ033-039-045-046-055>057-062-063-030100-
EAST-CENTRAL ILLINOIS

CITY           SKY/WX    TMP DP  RH WIND       PRES   REMARKS
CHAMPAIGN      SUNNY     71  54  54 E5        30.07R
MATTOON        SUNNY     70  56  61 S5        30.05S
$$

ILZ079-100>102-030100-
SOUTHWEST ILLINOIS

CITY           SKY/WX    TMP DP  RH WIND       PRES   REMARKS
BELLEVILLE     MOSUNNY   68  58  71 SE5       30.05R
CAHOKIA*       SUNNY     70  57  63 SE6       30.04S
$$

ILZ064>066-069>071-074>076-080>082-084>086-088>090-092>094-030100-
SOUTH-CENTRAL ILLINOIS

CITY           SKY/WX    TMP DP  RH WIND       PRES   REMARKS
CARBONDALE     CLOUDY    64  57  78 CALM      30.06S
6HR MIN TEMP:  63; 6HR MAX TEMP:  65;

MT. VERNON     CLOUDY    63  54  72 E6        30.07S
$$

ILZ067-068-072-073-078-083-087-091-030100-
SOUTHEAST ILLINOIS

CITY           SKY/WX    TMP DP  RH WIND       PRES   REMARKS
LAWRENCEVILLE  SUNNY     71  57  61 CALM      30.05S
$$

ABBREVIATIONS USED IN REMARKS
   TC - TEMPERATURE IN CELSIUS
  WCI - WIND CHILL INDEX
   HX - HEAT INDEX
  VSB - VISIBILITY
$$




USA.gov is the U.S. government's official web portal to all federal, state and local government web resources and services.